STRAND-1

Last updated on Fri Dec 19 2025 00:03:11 GMT+0000 (Coordinated Universal Time)

1 39090U 13009E 25352.44883364 .00000306 00000+0 11761-3 0 9998 2 39090 98.3821 172.1940 0009570 55.5383 304.6706 14.37009931671106
UTC large
Height (km)
Speed (km/s)
/
Latitude / Longitude
Inclination (degrees)
Orbital Period (minutes)
Azimuth
Elevation
Range (km)
Doppler Factor

Next 0 passes for location: London (51.5072 / 0.1276)

Sorry there are no passes over London.